Location: Newark
(44.4156°N, 12.1972°E)
Time: 03:23:03
(UTC+00:00)

STARLINK-1080 - Pass Details

Date: 28 January 2020
Orbit: 348 x 351 km, 53.0° (Epoch: 21 February)

Event Time Altitude Azimuth Distance (km) Brightness Sun altitude
Rises 17:23:36 0° 307° (NW) 2,161 7.3 -12.5°
Maximum altitude 17:28:18 23° 19° (NNE) 795 4.2 -13.4°
Enters shadow 17:28:51 22° 37° (NE) 829 4.1 -13.5°
